DW3857 Weather Reports


time (UTC)temp
F
wind
direction
speed
knots
gust
knots
rain 1hr
in
rain 24hr
in
rain mn
in
humidity
%
barometer
mb
20260507053055 58 0.0 0.0 0.00 0.00 0.00 63 1008.6
20260507051551 58 0.0 0.0 0.00 0.00 0.00 63 1008.6
20260507050049 57 0.0 0.0 0.00 0.00 0.00 63 1008.4
20260507044546 57 0.0 0.0 0.00 0.00 0.00 63 1008.2
20260507043045 57 0.0 0.0 0.00 0.00 0.00 64 1007.9
20260507041543 57 0.0 0.0 0.00 0.00 0.00 64 1007.7
20260507040056 57 0.0 0.0 0.00 0.00 0.00 64 1007.8
20260507034552 57 0.0 0.0 0.00 0.00 0.00 64 1007.8
20260507033043 58 0.0 0.0 0.00 0.00 0.00 64 1007.7
20260507031539 58 0.0 0.0 0.00 0.00 0.00 64 1007.5
20260507030038 58 0.0 0.0 0.00 0.00 0.00 65 1007.5
20260507024537 58 0.0 0.0 0.00 0.00 0.00 66 1007.3
20260507023035 58 0.0 0.0 0.00 0.00 0.00 66 1007.3
20260507021533 59 0.0 0.0 0.00 0.00 0.00 66 1007.3
20260507020034 59 0.0 0.0 0.00 0.00 0.00 66 1007.2
20260507014531 59 0.0 0.0 0.00 0.00 0.00 66 1007.0
20260507013036 59 0.0 0.0 0.00 0.00 0.00 66 1007.0
20260507011537 59 0.0 0.0 0.00 0.00 0.00 65 1006.8
20260507010029 60 0.0 0.0 0.00 0.00 0.00 65 1006.8
20260507004525 60 0.0 0.0 0.00 0.00 0.00 65 1007.0
20260507003023 60 0.0 0.0 0.00 0.00 0.00 64 1006.9
20260507001522 61 0.0 0.0 0.00 0.00 0.00 63 1006.6
20260507000020 61 0.0 0.0 0.00 0.00 0.00 64 1006.5
20260506234525 61 0.0 0.0 0.00 0.00 0.00 65 1006.4
20260506233019 61 0.0 0.0 0.00 0.00 0.00 69 1006.4
20260506231517 61 0.0 0.0 0.00 0.00 0.00 69 1006.2
20260506230014 62 0.0 0.0 0.00 0.00 0.00 68 1006.2
20260506224520 62 0.0 0.0 0.00 0.00 0.00 64 1005.8
20260506223009 62 0.0 0.0 0.00 0.00 0.00 64 1005.4
20260506221507 62 0.0 0.0 0.00 0.00 0.00 64 1005.2
20260506220004 63 0.0 0.0 0.00 0.00 0.00 63 1004.8
20260506214502 63 0.0 0.0 0.00 0.00 0.00 63 1004.5
20260506213001 64 0.0 0.0 0.00 0.00 0.00 62 1003.9
20260506211501 64 0.0 0.0 0.00 0.00 0.00 62 1003.8
20260506210121 64 0.0 0.0 0.00 0.00 0.00 61 1003.5
20260506204600 65 0.0 0.0 0.00 0.00 0.00 61 1003.5
20260506203143 65 0.0 0.0 0.00 0.00 0.00 60 1003.5
20260506201559 65 0.0 0.0 0.00 0.00 0.00 60 1003.3
20260506200059 66 0.0 0.0 0.00 0.00 0.00 59 1003.2
20260506194558 66 0.0 0.0 0.00 0.00 0.00 58 1003.0
20260506193058 66 0.0 0.0 0.00 0.00 0.00 57 1002.8
20260506191604 67 0.0 0.0 0.00 0.00 0.00 57 1002.5
20260506190058 67 0.0 0.0 0.00 0.00 0.00 55 1002.4
20260506184601 68 0.0 0.0 0.00 0.00 0.00 55 1002.4
20260506183105 68 0.0 0.0 0.00 0.00 0.00 54 1002.3
20260506181600 69 0.0 0.0 0.00 0.00 0.00 53 1002.2
20260506180057 70 0.0 0.0 0.00 0.00 0.00 52 1002.0
20260506174607 70 0.0 0.0 0.00 0.00 0.00 50 1002.0
20260506173057 71 0.0 0.0 0.00 0.00 0.00 49 1002.1
20260506171604 71 0.0 0.0 0.00 0.00 0.00 49 1002.1
20260506170054 72 0.0 0.0 0.00 0.00 0.00 48 1002.0
20260506164557 73 0.0 0.0 0.00 0.00 0.00 45 1001.8
20260506163107 74 0.0 0.0 0.00 0.00 0.00 45 1001.9
20260506161649 75 0.0 0.0 0.00 0.00 0.00 45 1002.1
20260506160051 75 0.0 0.0 0.00 0.00 0.00 45 1002.3
20260506154552 75 0.0 0.0 0.00 0.00 0.00 45 1002.3
20260506153055 76 0.0 0.0 0.00 0.00 0.00 43 1002.4
20260506151549 76 0.0 0.0 0.00 0.00 0.00 42 1002.2
20260506150047 77 0.0 0.0 0.00 0.00 0.00 41 1002.3
20260506144546 76 0.0 0.0 0.00 0.00 0.00 40 1002.3
20260506143046 76 0.0 0.0 0.00 0.00 0.00 40 1002.2
20260506141545 78 0.0 0.0 0.00 0.00 0.00 37 1002.2
20260506140045 78 0.0 0.0 0.00 0.00 0.00 38 1002.3
20260506134543 79 0.0 0.0 0.00 0.00 0.00 37 1002.4
20260506133046 78 0.0 0.0 0.00 0.00 0.00 37 1002.5
20260506131539 78 0.0 0.0 0.00 0.00 0.00 37 1002.9
20260506130039 77 0.0 0.0 0.00 0.00 0.00 38 1003.1
20260506124533 76 0.0 0.0 0.00 0.00 0.00 38 1003.3
20260506123032 76 0.0 0.0 0.00 0.00 0.00 39 1003.4
20260506121531 75 0.0 0.0 0.00 0.00 0.00 38 1003.7
20260506120034 75 0.0 0.0 0.00 0.00 0.00 39 1003.7
20260506114529 74 0.0 0.0 0.00 0.00 0.00 43 1003.8
20260506113029 75 0.0 0.0 0.00 0.00 0.00 43 1004.2
20260506111530 75 0.0 0.0 0.00 0.00 0.00 43 1004.4
20260506110027 75 0.0 0.0 0.00 0.00 0.00 43 1004.7
20260506104525 75 0.0 0.0 0.00 0.00 0.00 45 1004.9
20260506103025 75 0.0 0.0 0.00 0.00 0.00 44 1005.1
20260506101525 74 0.0 0.0 0.00 0.00 0.00 46 1005.4
20260506100025 74 0.0 0.0 0.00 0.00 0.00 46 1005.6
20260506094522 74 0.0 0.0 0.00 0.00 0.00 45 1005.7
20260506093021 74 0.0 0.0 0.00 0.00 0.00 44 1005.8
20260506091520 72 0.0 0.0 0.00 0.00 0.00 45 1005.9
20260506090023 73 0.0 0.0 0.00 0.00 0.00 45 1006.0
20260506084521 72 0.0 0.0 0.00 0.00 0.00 49 1006.0
20260506083019 71 0.0 0.0 0.00 0.00 0.00 49 1006.0
20260506081510 69 0.0 0.0 0.00 0.00 0.00 52 1006.2
20260506073006 68 0.0 0.0 0.00 0.00 0.00 55 1006.3
20260506071503 67 0.0 0.0 0.00 0.00 0.00 56 1006.4
20260506061553 64 0.0 0.0 0.00 0.00 0.00 60 1006.7